Information on these data can be found in provided Readme document
Contact Info: Zachary Fasnacht (zachary.fasnacht@ssaihq.com); Nickolay Krotkov (nickolay.a.krotkov@nasa.gov); Lok Lamsal (lok.lamsal@nasa.gov)

FillValue: -999.
ScaleFactor: 1e15
Units: molecules/cm^2

Date(yyyy-mm-dd),City,Country,LonCenter,LatCenter,BoundingCoordinates,Median,Q1,Q3,Mean,Baseline_Median,Baseline_Q1,Baseline_Q3,Baseline_Mean,NumGoodSamples,NumTotalSamples
2015-01-01,Sanaa,Yemen,44.191,15.3694,[43.691 14.8694 44.691 15.8694],0.925,0.396,1.517,1.112,1.027,0.514,1.521,1.132,232.0,553.0
2015-01-02,Sanaa,Yemen,44.191,15.3694,[43.691 14.8694 44.691 15.8694],0.939,0.396,1.458,1.087,0.994,0.486,1.514,1.121,249.0,523.0
2015-01-03,Sanaa,Yemen,44.191,15.3694,[43.691 14.8694 44.691 15.8694],0.97,0.317,1.582,1.113,1.011,0.488,1.505,1.118,225.0,549.0
2015-01-04,Sanaa,Yemen,44.191,15.3694,[43.691 14.8694 44.691 15.8694],0.939,0.317,1.582,1.107,1.026,0.512,1.506,1.121,196.0,533.0
2015-01-05,Sanaa,Yemen,44.191,15.3694,[43.691 14.8694 44.691 15.8694],0.927,0.31,1.481,1.085,1.002,0.494,1.506,1.11,206.0,548.0
2015-01-06,Sanaa,Yemen,44.191,15.3694,[43.691 14.8694 44.691 15.8694],0.843,0.314,1.413,1.032,0.985,0.491,1.475,1.082,196.0,549.0
2015-01-07,Sanaa,Yemen,44.191,15.3694,[43.691 14.8694 44.691 15.8694],0.813,0.31,1.413,1.02,0.972,0.479,1.462,1.061,224.0,543.0
2015-01-08,Sanaa,Yemen,44.191,15.3694,[43.691 14.8694 44.691 15.8694],0.813,0.31,1.26,1.005,0.953,0.476,1.429,1.048,203.0,553.0
2015-01-09,Sanaa,Yemen,44.191,15.3694,[43.691 14.8694 44.691 15.8694],0.78,0.321,1.318,1.004,0.942,0.488,1.445,1.056,222.0,530.0
2015-01-10,Sanaa,Yemen,44.191,15.3694,[43.691 14.8694 44.691 15.8694],0.882,0.339,1.798,1.133,0.969,0.503,1.537,1.083,194.0,497.0
2015-01-11,Sanaa,Yemen,44.191,15.3694,[43.691 14.8694 44.691 15.8694],0.787,0.4,1.519,1.057,0.961,0.506,1.466,1.062,211.0,479.0
2015-01-12,Sanaa,Yemen,44.191,15.3694,[43.691 14.8694 44.691 15.8694],0.772,0.393,1.318,1.016,0.961,0.528,1.451,1.062,191.0,501.0
2015-01-13,Sanaa,Yemen,44.191,15.3694,[43.691 14.8694 44.691 15.8694],0.753,0.309,1.16,0.879,0.947,0.512,1.408,1.032,182.0,489.0
2015-01-14,Sanaa,Yemen,44.191,15.3694,[43.691 14.8694 44.691 15.8694],0.753,0.293,1.225,0.873,0.975,0.559,1.441,1.06,211.0,498.0
2015-01-15,Sanaa,Yemen,44.191,15.3694,[43.691 14.8694 44.691 15.8694],0.687,0.244,1.031,0.755,0.958,0.533,1.4,1.014,187.0,497.0
2015-01-16,Sanaa,Yemen,44.191,15.3694,[43.691 14.8694 44.691 15.8694],0.714,0.244,1.061,0.77,0.997,0.543,1.408,1.038,209.0,479.0
2015-01-17,Sanaa,Yemen,44.191,15.3694,[43.691 14.8694 44.691 15.8694],0.663,0.179,1.031,0.759,0.988,0.535,1.406,1.03,192.0,501.0
2015-01-18,Sanaa,Yemen,44.191,15.3694,[43.691 14.8694 44.691 15.8694],0.77,0.309,1.225,0.832,0.972,0.523,1.443,1.031,212.0,469.0
2015-01-19,Sanaa,Yemen,44.191,15.3694,[43.691 14.8694 44.691 15.8694],0.779,0.313,1.244,0.838,0.968,0.521,1.447,1.034,206.0,497.0
2015-01-20,Sanaa,Yemen,44.191,15.3694,[43.691 14.8694 44.691 15.8694],0.787,0.389,1.225,0.876,0.966,0.521,1.446,1.035,200.0,479.0
2015-01-21,Sanaa,Yemen,44.191,15.3694,[43.691 14.8694 44.691 15.8694],0.793,0.4,1.284,0.9,0.953,0.508,1.45,1.039,216.0,493.0
2015-01-22,Sanaa,Yemen,44.191,15.3694,[43.691 14.8694 44.691 15.8694],0.876,0.437,1.38,0.954,0.995,0.52,1.491,1.067,205.0,490.0
2015-01-23,Sanaa,Yemen,44.191,15.3694,[43.691 14.8694 44.691 15.8694],0.876,0.437,1.405,0.972,1.001,0.534,1.491,1.076,233.0,483.0
2015-01-24,Sanaa,Yemen,44.191,15.3694,[43.691 14.8694 44.691 15.8694],0.895,0.506,1.372,0.969,0.984,0.545,1.471,1.067,214.0,495.0
2015-01-25,Sanaa,Yemen,44.191,15.3694,[43.691 14.8694 44.691 15.8694],0.844,0.437,1.331,0.931,0.972,0.517,1.419,1.043,235.0,523.0
2015-01-26,Sanaa,Yemen,44.191,15.3694,[43.691 14.8694 44.691 15.8694],0.895,0.323,1.457,0.97,0.966,0.492,1.452,1.046,216.0,542.0
2015-01-27,Sanaa,Yemen,44.191,15.3694,[43.691 14.8694 44.691 15.8694],0.975,0.428,1.574,1.005,0.989,0.5,1.472,1.051,243.0,524.0
2015-01-28,Sanaa,Yemen,44.191,15.3694,[43.691 14.8694 44.691 15.8694],0.989,0.455,1.623,1.081,0.971,0.508,1.483,1.063,223.0,548.0
2015-01-29,Sanaa,Yemen,44.191,15.3694,[43.691 14.8694 44.691 15.8694],1.046,0.498,1.642,1.167,0.962,0.486,1.468,1.053,215.0,534.0
2015-01-30,Sanaa,Yemen,44.191,15.3694,[43.691 14.8694 44.691 15.8694],1.036,0.475,1.642,1.153,0.962,0.507,1.468,1.072,243.0,543.0
2015-01-31,Sanaa,Yemen,44.191,15.3694,[43.691 14.8694 44.691 15.8694],1.046,0.491,1.664,1.178,0.934,0.474,1.469,1.051,221.0,543.0
2015-02-01,Sanaa,Yemen,44.191,15.3694,[43.691 14.8694 44.691 15.8694],1.046,0.489,1.664,1.193,0.945,0.51,1.5,1.066,243.0,526.0
2015-02-02,Sanaa,Yemen,44.191,15.3694,[43.691 14.8694 44.691 15.8694],1.027,0.441,1.664,1.181,0.931,0.498,1.487,1.063,223.0,549.0
2015-02-03,Sanaa,Yemen,44.191,15.3694,[43.691 14.8694 44.691 15.8694],1.017,0.455,1.642,1.157,0.945,0.499,1.52,1.08,242.0,516.0
2015-02-04,Sanaa,Yemen,44.191,15.3694,[43.691 14.8694 44.691 15.8694],1.046,0.434,1.642,1.169,0.952,0.513,1.534,1.082,219.0,541.0
2015-02-05,Sanaa,Yemen,44.191,15.3694,[43.691 14.8694 44.691 15.8694],1.074,0.483,1.688,1.186,1.003,0.528,1.557,1.095,208.0,525.0
2015-02-06,Sanaa,Yemen,44.191,15.3694,[43.691 14.8694 44.691 15.8694],1.046,0.455,1.642,1.144,0.983,0.511,1.528,1.063,225.0,543.0
2015-02-07,Sanaa,Yemen,44.191,15.3694,[43.691 14.8694 44.691 15.8694],1.046,0.455,1.642,1.127,1.007,0.524,1.543,1.084,214.0,539.0
2015-02-08,Sanaa,Yemen,44.191,15.3694,[43.691 14.8694 44.691 15.8694],1.025,0.441,1.623,1.092,1.002,0.519,1.533,1.072,239.0,531.0
2015-02-09,Sanaa,Yemen,44.191,15.3694,[43.691 14.8694 44.691 15.8694],1.048,0.455,1.642,1.143,0.995,0.524,1.531,1.082,218.0,540.0
2015-02-10,Sanaa,Yemen,44.191,15.3694,[43.691 14.8694 44.691 15.8694],1.025,0.455,1.623,1.115,1.015,0.528,1.562,1.092,240.0,518.0
2015-02-11,Sanaa,Yemen,44.191,15.3694,[43.691 14.8694 44.691 15.8694],1.005,0.463,1.648,1.115,1.002,0.527,1.55,1.079,212.0,487.0
2015-02-12,Sanaa,Yemen,44.191,15.3694,[43.691 14.8694 44.691 15.8694],1.018,0.475,1.62,1.107,1.02,0.53,1.541,1.077,237.0,468.0
2015-02-13,Sanaa,Yemen,44.191,15.3694,[43.691 14.8694 44.691 15.8694],0.993,0.465,1.492,1.035,1.001,0.526,1.524,1.054,219.0,493.0
2015-02-14,Sanaa,Yemen,44.191,15.3694,[43.691 14.8694 44.691 15.8694],0.95,0.377,1.454,0.953,0.945,0.473,1.511,1.014,214.0,483.0
2015-02-15,Sanaa,Yemen,44.191,15.3694,[43.691 14.8694 44.691 15.8694],0.95,0.392,1.473,0.976,0.929,0.498,1.5,1.015,244.0,492.0
2015-02-16,Sanaa,Yemen,44.191,15.3694,[43.691 14.8694 44.691 15.8694],0.922,0.414,1.473,0.942,0.895,0.474,1.457,0.978,222.0,491.0
2015-02-17,Sanaa,Yemen,44.191,15.3694,[43.691 14.8694 44.691 15.8694],0.922,0.414,1.487,0.958,0.886,0.469,1.45,0.969,245.0,473.0
2015-02-18,Sanaa,Yemen,44.191,15.3694,[43.691 14.8694 44.691 15.8694],0.922,0.367,1.571,0.959,0.872,0.441,1.406,0.929,228.0,497.0
2015-02-19,Sanaa,Yemen,44.191,15.3694,[43.691 14.8694 44.691 15.8694],0.952,0.429,1.607,0.987,0.868,0.44,1.41,0.918,248.0,467.0
2015-02-20,Sanaa,Yemen,44.191,15.3694,[43.691 14.8694 44.691 15.8694],0.867,0.332,1.487,0.938,0.826,0.417,1.345,0.893,225.0,492.0
2015-02-21,Sanaa,Yemen,44.191,15.3694,[43.691 14.8694 44.691 15.8694],0.863,0.375,1.373,0.916,0.835,0.419,1.31,0.881,215.0,474.0
2015-02-22,Sanaa,Yemen,44.191,15.3694,[43.691 14.8694 44.691 15.8694],0.848,0.332,1.373,0.897,0.802,0.361,1.275,0.833,232.0,492.0
2015-02-23,Sanaa,Yemen,44.191,15.3694,[43.691 14.8694 44.691 15.8694],0.857,0.389,1.487,0.919,0.794,0.347,1.272,0.824,224.0,490.0
2015-02-24,Sanaa,Yemen,44.191,15.3694,[43.691 14.8694 44.691 15.8694],0.848,0.384,1.483,0.908,0.812,0.347,1.272,0.826,250.0,484.0
2015-02-25,Sanaa,Yemen,44.191,15.3694,[43.691 14.8694 44.691 15.8694],0.839,0.392,1.483,0.919,0.802,0.34,1.281,0.821,247.0,493.0
2015-02-26,Sanaa,Yemen,44.191,15.3694,[43.691 14.8694 44.691 15.8694],0.857,0.417,1.487,0.937,0.82,0.354,1.282,0.835,267.0,521.0
2015-02-27,Sanaa,Yemen,44.191,15.3694,[43.691 14.8694 44.691 15.8694],0.731,0.361,1.44,0.894,0.802,0.351,1.267,0.832,241.0,541.0
2015-02-28,Sanaa,Yemen,44.191,15.3694,[43.691 14.8694 44.691 15.8694],0.731,0.261,1.295,0.824,0.806,0.34,1.302,0.848,265.0,524.0
2015-03-01,Sanaa,Yemen,44.191,15.3694,[43.691 14.8694 44.691 15.8694],0.774,0.369,1.373,0.893,0.824,0.399,1.325,0.885,268.0,545.0
2015-03-02,Sanaa,Yemen,44.191,15.3694,[43.691 14.8694 44.691 15.8694],0.767,0.297,1.334,0.838,0.825,0.374,1.291,0.865,250.0,532.0
2015-03-03,Sanaa,Yemen,44.191,15.3694,[43.691 14.8694 44.691 15.8694],0.767,0.294,1.371,0.849,0.833,0.389,1.326,0.878,281.0,542.0
2015-03-04,Sanaa,Yemen,44.191,15.3694,[43.691 14.8694 44.691 15.8694],0.767,0.297,1.321,0.835,0.848,0.401,1.329,0.891,285.0,544.0
2015-03-05,Sanaa,Yemen,44.191,15.3694,[43.691 14.8694 44.691 15.8694],0.767,0.319,1.373,0.852,0.866,0.44,1.355,0.914,306.0,526.0
2015-03-06,Sanaa,Yemen,44.191,15.3694,[43.691 14.8694 44.691 15.8694],0.731,0.294,1.278,0.813,0.862,0.421,1.333,0.91,291.0,551.0
2015-03-07,Sanaa,Yemen,44.191,15.3694,[43.691 14.8694 44.691 15.8694],0.705,0.261,1.169,0.774,0.879,0.422,1.348,0.933,310.0,520.0
2015-03-08,Sanaa,Yemen,44.191,15.3694,[43.691 14.8694 44.691 15.8694],0.705,0.25,1.208,0.774,0.913,0.473,1.374,0.961,286.0,547.0
2015-03-09,Sanaa,Yemen,44.191,15.3694,[43.691 14.8694 44.691 15.8694],0.731,0.269,1.278,0.825,0.921,0.484,1.395,0.976,271.0,529.0
2015-03-10,Sanaa,Yemen,44.191,15.3694,[43.691 14.8694 44.691 15.8694],0.751,0.269,1.308,0.833,0.945,0.505,1.445,0.995,288.0,545.0
2015-03-11,Sanaa,Yemen,44.191,15.3694,[43.691 14.8694 44.691 15.8694],0.731,0.269,1.357,0.861,0.977,0.528,1.501,1.031,278.0,541.0
2015-03-12,Sanaa,Yemen,44.191,15.3694,[43.691 14.8694 44.691 15.8694],0.767,0.294,1.418,0.879,0.994,0.555,1.501,1.033,284.0,534.0
2015-03-13,Sanaa,Yemen,44.191,15.3694,[43.691 14.8694 44.691 15.8694],0.763,0.269,1.27,0.855,0.998,0.537,1.472,1.029,264.0,542.0
2015-03-14,Sanaa,Yemen,44.191,15.3694,[43.691 14.8694 44.691 15.8694],0.746,0.235,1.206,0.823,0.997,0.529,1.487,1.034,283.0,519.0
2015-03-15,Sanaa,Yemen,44.191,15.3694,[43.691 14.8694 44.691 15.8694],0.772,0.269,1.468,0.902,1.011,0.537,1.515,1.03,256.0,486.0
2015-03-16,Sanaa,Yemen,44.191,15.3694,[43.691 14.8694 44.691 15.8694],0.792,0.266,1.492,0.898,1.017,0.509,1.536,1.033,230.0,467.0
2015-03-17,Sanaa,Yemen,44.191,15.3694,[43.691 14.8694 44.691 15.8694],0.829,0.322,1.498,0.938,1.014,0.507,1.531,1.027,240.0,492.0
2015-03-18,Sanaa,Yemen,44.191,15.3694,[43.691 14.8694 44.691 15.8694],0.913,0.365,1.595,1.022,1.037,0.513,1.559,1.043,227.0,483.0
2015-03-19,Sanaa,Yemen,44.191,15.3694,[43.691 14.8694 44.691 15.8694],0.942,0.404,1.775,1.084,1.016,0.493,1.558,1.027,232.0,491.0
2015-03-20,Sanaa,Yemen,44.191,15.3694,[43.691 14.8694 44.691 15.8694],0.978,0.382,1.848,1.108,0.982,0.452,1.569,1.023,228.0,495.0
2015-03-21,Sanaa,Yemen,44.191,15.3694,[43.691 14.8694 44.691 15.8694],0.978,0.404,1.731,1.082,0.966,0.484,1.534,1.021,248.0,478.0
2015-03-22,Sanaa,Yemen,44.191,15.3694,[43.691 14.8694 44.691 15.8694],1.028,0.553,1.907,1.187,0.941,0.515,1.523,1.002,232.0,502.0
2015-03-23,Sanaa,Yemen,44.191,15.3694,[43.691 14.8694 44.691 15.8694],0.983,0.47,1.772,1.117,0.925,0.456,1.511,0.989,252.0,470.0
2015-03-24,Sanaa,Yemen,44.191,15.3694,[43.691 14.8694 44.691 15.8694],1.008,0.432,1.772,1.098,0.937,0.472,1.496,0.994,233.0,496.0
2015-03-25,Sanaa,Yemen,44.191,15.3694,[43.691 14.8694 44.691 15.8694],0.973,0.47,1.642,1.076,0.91,0.422,1.456,0.971,221.0,476.0
2015-03-26,Sanaa,Yemen,44.191,15.3694,[43.691 14.8694 44.691 15.8694],0.952,0.448,1.537,1.024,0.854,0.395,1.405,0.934,236.0,491.0
2015-03-27,Sanaa,Yemen,44.191,15.3694,[43.691 14.8694 44.691 15.8694],0.977,0.448,1.478,1.037,0.863,0.398,1.369,0.931,225.0,487.0
2015-03-28,Sanaa,Yemen,44.191,15.3694,[43.691 14.8694 44.691 15.8694],1.02,0.448,1.642,1.072,0.876,0.403,1.397,0.936,251.0,482.0
2015-03-29,Sanaa,Yemen,44.191,15.3694,[43.691 14.8694 44.691 15.8694],1.028,0.498,1.731,1.125,0.867,0.411,1.395,0.932,253.0,491.0
2015-03-30,Sanaa,Yemen,44.191,15.3694,[43.691 14.8694 44.691 15.8694],0.973,0.47,1.578,1.088,0.89,0.444,1.401,0.961,273.0,520.0
2015-03-31,Sanaa,Yemen,44.191,15.3694,[43.691 14.8694 44.691 15.8694],0.973,0.47,1.578,1.088,0.872,0.443,1.376,0.944,273.0,542.0
2015-04-01,Sanaa,Yemen,44.191,15.3694,[43.691 14.8694 44.691 15.8694],0.913,0.429,1.427,0.992,0.872,0.445,1.346,0.944,271.0,520.0
2015-04-02,Sanaa,Yemen,44.191,15.3694,[43.691 14.8694 44.691 15.8694],0.876,0.421,1.312,0.92,0.859,0.433,1.336,0.924,285.0,542.0
2015-04-03,Sanaa,Yemen,44.191,15.3694,[43.691 14.8694 44.691 15.8694],0.846,0.416,1.277,0.853,0.885,0.458,1.341,0.928,278.0,534.0
2015-04-04,Sanaa,Yemen,44.191,15.3694,[43.691 14.8694 44.691 15.8694],0.809,0.429,1.266,0.851,0.923,0.503,1.375,0.951,290.0,540.0
2015-04-05,Sanaa,Yemen,44.191,15.3694,[43.691 14.8694 44.691 15.8694],0.809,0.421,1.247,0.851,0.917,0.496,1.356,0.953,288.0,543.0
2015-04-06,Sanaa,Yemen,44.191,15.3694,[43.691 14.8694 44.691 15.8694],0.781,0.394,1.247,0.84,0.962,0.529,1.375,0.983,304.0,528.0
2015-04-07,Sanaa,Yemen,44.191,15.3694,[43.691 14.8694 44.691 15.8694],0.809,0.394,1.277,0.854,0.959,0.511,1.354,0.954,287.0,551.0
2015-04-08,Sanaa,Yemen,44.191,15.3694,[43.691 14.8694 44.691 15.8694],0.808,0.421,1.247,0.844,0.95,0.504,1.354,0.945,307.0,521.0
2015-04-09,Sanaa,Yemen,44.191,15.3694,[43.691 14.8694 44.691 15.8694],0.796,0.385,1.277,0.835,0.932,0.479,1.387,0.948,285.0,549.0
2015-04-10,Sanaa,Yemen,44.191,15.3694,[43.691 14.8694 44.691 15.8694],0.781,0.388,1.229,0.828,0.928,0.453,1.361,0.928,275.0,533.0
2015-04-11,Sanaa,Yemen,44.191,15.3694,[43.691 14.8694 44.691 15.8694],0.771,0.374,1.094,0.775,0.897,0.459,1.344,0.92,294.0,550.0
2015-04-12,Sanaa,Yemen,44.191,15.3694,[43.691 14.8694 44.691 15.8694],0.689,0.33,1.049,0.706,0.868,0.444,1.332,0.902,284.0,549.0
2015-04-13,Sanaa,Yemen,44.191,15.3694,[43.691 14.8694 44.691 15.8694],0.689,0.329,1.057,0.698,0.876,0.438,1.327,0.895,288.0,543.0
2015-04-14,Sanaa,Yemen,44.191,15.3694,[43.691 14.8694 44.691 15.8694],0.658,0.323,1.058,0.692,0.842,0.408,1.294,0.867,286.0,549.0
2015-04-15,Sanaa,Yemen,44.191,15.3694,[43.691 14.8694 44.691 15.8694],0.658,0.328,1.048,0.692,0.838,0.412,1.289,0.861,308.0,527.0
2015-04-16,Sanaa,Yemen,44.191,15.3694,[43.691 14.8694 44.691 15.8694],0.689,0.333,1.039,0.714,0.855,0.4,1.278,0.854,288.0,499.0
2015-04-17,Sanaa,Yemen,44.191,15.3694,[43.691 14.8694 44.691 15.8694],0.766,0.399,1.072,0.764,0.87,0.434,1.284,0.873,283.0,481.0
2015-04-18,Sanaa,Yemen,44.191,15.3694,[43.691 14.8694 44.691 15.8694],0.761,0.386,1.095,0.773,0.87,0.412,1.28,0.875,284.0,502.0
2015-04-19,Sanaa,Yemen,44.191,15.3694,[43.691 14.8694 44.691 15.8694],0.766,0.388,1.095,0.763,0.844,0.378,1.276,0.85,274.0,489.0
2015-04-20,Sanaa,Yemen,44.191,15.3694,[43.691 14.8694 44.691 15.8694],0.759,0.386,1.082,0.754,0.842,0.37,1.267,0.838,280.0,495.0
2015-04-21,Sanaa,Yemen,44.191,15.3694,[43.691 14.8694 44.691 15.8694],0.736,0.386,1.095,0.752,0.765,0.337,1.222,0.804,288.0,492.0
2015-04-22,Sanaa,Yemen,44.191,15.3694,[43.691 14.8694 44.691 15.8694],0.736,0.386,1.095,0.754,0.825,0.366,1.266,0.845,307.0,475.0
2015-04-23,Sanaa,Yemen,44.191,15.3694,[43.691 14.8694 44.691 15.8694],0.715,0.372,1.095,0.756,0.818,0.359,1.268,0.844,295.0,494.0
2015-04-24,Sanaa,Yemen,44.191,15.3694,[43.691 14.8694 44.691 15.8694],0.736,0.386,1.095,0.765,0.837,0.394,1.291,0.862,315.0,464.0
2015-04-25,Sanaa,Yemen,44.191,15.3694,[43.691 14.8694 44.691 15.8694],0.783,0.399,1.106,0.779,0.863,0.433,1.27,0.879,294.0,491.0
2015-04-26,Sanaa,Yemen,44.191,15.3694,[43.691 14.8694 44.691 15.8694],0.807,0.412,1.106,0.797,0.908,0.473,1.298,0.896,269.0,476.0
2015-04-27,Sanaa,Yemen,44.191,15.3694,[43.691 14.8694 44.691 15.8694],0.833,0.43,1.132,0.824,0.893,0.444,1.326,0.904,255.0,491.0
2015-04-28,Sanaa,Yemen,44.191,15.3694,[43.691 14.8694 44.691 15.8694],0.831,0.43,1.106,0.831,0.903,0.473,1.373,0.925,232.0,487.0
2015-04-29,Sanaa,Yemen,44.191,15.3694,[43.691 14.8694 44.691 15.8694],0.87,0.507,1.192,0.883,0.911,0.498,1.37,0.938,234.0,485.0
2015-04-30,Sanaa,Yemen,44.191,15.3694,[43.691 14.8694 44.691 15.8694],0.881,0.514,1.208,0.902,0.923,0.501,1.371,0.945,218.0,490.0
2015-05-01,Sanaa,Yemen,44.191,15.3694,[43.691 14.8694 44.691 15.8694],0.881,0.532,1.208,0.902,0.929,0.507,1.396,0.959,225.0,516.0
2015-05-02,Sanaa,Yemen,44.191,15.3694,[43.691 14.8694 44.691 15.8694],0.821,0.429,1.283,0.879,0.903,0.488,1.413,0.957,198.0,534.0
2015-05-03,Sanaa,Yemen,44.191,15.3694,[43.691 14.8694 44.691 15.8694],0.821,0.491,1.216,0.875,0.893,0.51,1.392,0.948,192.0,515.0
2015-05-04,Sanaa,Yemen,44.191,15.3694,[43.691 14.8694 44.691 15.8694],0.821,0.461,1.297,0.897,0.898,0.517,1.39,0.956,195.0,541.0
2015-05-05,Sanaa,Yemen,44.191,15.3694,[43.691 14.8694 44.691 15.8694],0.87,0.549,1.297,0.94,0.886,0.529,1.362,0.959,185.0,524.0
2015-05-06,Sanaa,Yemen,44.191,15.3694,[43.691 14.8694 44.691 15.8694],0.87,0.604,1.297,0.939,0.873,0.555,1.331,0.949,181.0,533.0
2015-05-07,Sanaa,Yemen,44.191,15.3694,[43.691 14.8694 44.691 15.8694],0.885,0.623,1.297,0.95,0.873,0.57,1.323,0.949,186.0,532.0
2015-05-08,Sanaa,Yemen,44.191,15.3694,[43.691 14.8694 44.691 15.8694],0.87,0.569,1.231,0.914,0.846,0.545,1.299,0.92,196.0,517.0
2015-05-09,Sanaa,Yemen,44.191,15.3694,[43.691 14.8694 44.691 15.8694],0.87,0.491,1.283,0.908,0.843,0.533,1.288,0.917,184.0,537.0
2015-05-10,Sanaa,Yemen,44.191,15.3694,[43.691 14.8694 44.691 15.8694],0.87,0.519,1.192,0.899,0.876,0.562,1.28,0.931,204.0,506.0
2015-05-11,Sanaa,Yemen,44.191,15.3694,[43.691 14.8694 44.691 15.8694],0.87,0.519,1.192,0.902,0.866,0.551,1.238,0.918,196.0,529.0
2015-05-12,Sanaa,Yemen,44.191,15.3694,[43.691 14.8694 44.691 15.8694],0.86,0.461,1.144,0.841,0.869,0.545,1.226,0.905,218.0,513.0
2015-05-13,Sanaa,Yemen,44.191,15.3694,[43.691 14.8694 44.691 15.8694],0.84,0.434,1.144,0.824,0.865,0.514,1.215,0.899,251.0,532.0
2015-05-14,Sanaa,Yemen,44.191,15.3694,[43.691 14.8694 44.691 15.8694],0.793,0.373,1.083,0.751,0.859,0.516,1.213,0.893,250.0,529.0
2015-05-15,Sanaa,Yemen,44.191,15.3694,[43.691 14.8694 44.691 15.8694],0.771,0.373,1.052,0.736,0.859,0.518,1.222,0.891,270.0,527.0
2015-05-16,Sanaa,Yemen,44.191,15.3694,[43.691 14.8694 44.691 15.8694],0.728,0.332,1.038,0.712,0.854,0.517,1.222,0.886,281.0,539.0
2015-05-17,Sanaa,Yemen,44.191,15.3694,[43.691 14.8694 44.691 15.8694],0.699,0.308,1.026,0.691,0.849,0.509,1.199,0.874,298.0,514.0
2015-05-18,Sanaa,Yemen,44.191,15.3694,[43.691 14.8694 44.691 15.8694],0.668,0.289,1.006,0.668,0.846,0.512,1.203,0.871,278.0,482.0
2015-05-19,Sanaa,Yemen,44.191,15.3694,[43.691 14.8694 44.691 15.8694],0.684,0.295,1.024,0.686,0.844,0.515,1.218,0.869,270.0,463.0
2015-05-20,Sanaa,Yemen,44.191,15.3694,[43.691 14.8694 44.691 15.8694],0.656,0.279,0.98,0.651,0.838,0.509,1.21,0.871,263.0,492.0
2015-05-21,Sanaa,Yemen,44.191,15.3694,[43.691 14.8694 44.691 15.8694],0.652,0.279,1.006,0.658,0.845,0.502,1.223,0.868,240.0,479.0
2015-05-22,Sanaa,Yemen,44.191,15.3694,[43.691 14.8694 44.691 15.8694],0.621,0.279,0.98,0.687,0.841,0.508,1.239,0.885,231.0,490.0
2015-05-23,Sanaa,Yemen,44.191,15.3694,[43.691 14.8694 44.691 15.8694],0.661,0.291,1.014,0.722,0.867,0.502,1.243,0.897,239.0,493.0
2015-05-24,Sanaa,Yemen,44.191,15.3694,[43.691 14.8694 44.691 15.8694],0.769,0.332,1.116,0.8,0.867,0.49,1.273,0.906,252.0,478.0
2015-05-25,Sanaa,Yemen,44.191,15.3694,[43.691 14.8694 44.691 15.8694],0.684,0.308,1.139,0.79,0.85,0.478,1.264,0.894,239.0,501.0
2015-05-26,Sanaa,Yemen,44.191,15.3694,[43.691 14.8694 44.691 15.8694],0.801,0.346,1.23,0.842,0.861,0.48,1.268,0.897,259.0,471.0
2015-05-27,Sanaa,Yemen,44.191,15.3694,[43.691 14.8694 44.691 15.8694],0.847,0.416,1.34,0.9,0.886,0.502,1.295,0.92,235.0,494.0
2015-05-28,Sanaa,Yemen,44.191,15.3694,[43.691 14.8694 44.691 15.8694],0.791,0.472,1.274,0.903,0.877,0.506,1.273,0.918,220.0,476.0
2015-05-29,Sanaa,Yemen,44.191,15.3694,[43.691 14.8694 44.691 15.8694],0.833,0.472,1.289,0.912,0.872,0.487,1.249,0.902,220.0,491.0
2015-05-30,Sanaa,Yemen,44.191,15.3694,[43.691 14.8694 44.691 15.8694],0.953,0.559,1.363,0.965,0.898,0.501,1.29,0.915,203.0,488.0
2015-05-31,Sanaa,Yemen,44.191,15.3694,[43.691 14.8694 44.691 15.8694],0.953,0.497,1.363,0.964,0.904,0.495,1.318,0.918,208.0,480.0
2015-06-01,Sanaa,Yemen,44.191,15.3694,[43.691 14.8694 44.691 15.8694],0.993,0.58,1.379,0.988,0.884,0.47,1.307,0.896,212.0,494.0
2015-06-02,Sanaa,Yemen,44.191,15.3694,[43.691 14.8694 44.691 15.8694],0.913,0.506,1.353,0.932,0.887,0.459,1.329,0.899,227.0,520.0
2015-06-03,Sanaa,Yemen,44.191,15.3694,[43.691 14.8694 44.691 15.8694],0.857,0.425,1.273,0.894,0.872,0.444,1.31,0.891,211.0,538.0
2015-06-04,Sanaa,Yemen,44.191,15.3694,[43.691 14.8694 44.691 15.8694],0.898,0.577,1.323,0.939,0.896,0.497,1.334,0.911,225.0,521.0
2015-06-05,Sanaa,Yemen,44.191,15.3694,[43.691 14.8694 44.691 15.8694],0.898,0.559,1.323,0.934,0.905,0.495,1.349,0.921,249.0,547.0
2015-06-06,Sanaa,Yemen,44.191,15.3694,[43.691 14.8694 44.691 15.8694],0.857,0.439,1.259,0.863,0.895,0.452,1.3,0.887,250.0,534.0
2015-06-07,Sanaa,Yemen,44.191,15.3694,[43.691 14.8694 44.691 15.8694],0.828,0.365,1.259,0.837,0.902,0.454,1.325,0.896,241.0,543.0
2015-06-08,Sanaa,Yemen,44.191,15.3694,[43.691 14.8694 44.691 15.8694],0.759,0.327,1.216,0.782,0.874,0.435,1.299,0.875,245.0,545.0
2015-06-09,Sanaa,Yemen,44.191,15.3694,[43.691 14.8694 44.691 15.8694],0.786,0.337,1.257,0.811,0.902,0.441,1.334,0.891,260.0,528.0
2015-06-10,Sanaa,Yemen,44.191,15.3694,[43.691 14.8694 44.691 15.8694],0.729,0.32,1.156,0.758,0.912,0.451,1.347,0.889,246.0,552.0
2015-06-11,Sanaa,Yemen,44.191,15.3694,[43.691 14.8694 44.691 15.8694],0.732,0.32,1.155,0.759,0.875,0.425,1.304,0.868,260.0,522.0
2015-06-12,Sanaa,Yemen,44.191,15.3694,[43.691 14.8694 44.691 15.8694],0.774,0.306,1.17,0.766,0.868,0.388,1.304,0.854,240.0,547.0
2015-06-13,Sanaa,Yemen,44.191,15.3694,[43.691 14.8694 44.691 15.8694],0.774,0.308,1.202,0.774,0.88,0.417,1.343,0.89,232.0,529.0
2015-06-14,Sanaa,Yemen,44.191,15.3694,[43.691 14.8694 44.691 15.8694],0.759,0.284,1.229,0.752,0.864,0.409,1.322,0.875,231.0,544.0
2015-06-15,Sanaa,Yemen,44.191,15.3694,[43.691 14.8694 44.691 15.8694],0.774,0.308,1.236,0.775,0.873,0.447,1.336,0.89,208.0,544.0
2015-06-16,Sanaa,Yemen,44.191,15.3694,[43.691 14.8694 44.691 15.8694],0.787,0.351,1.259,0.813,0.907,0.488,1.342,0.919,200.0,536.0
2015-06-17,Sanaa,Yemen,44.191,15.3694,[43.691 14.8694 44.691 15.8694],0.797,0.351,1.28,0.836,0.905,0.492,1.345,0.919,198.0,548.0
2015-06-18,Sanaa,Yemen,44.191,15.3694,[43.691 14.8694 44.691 15.8694],0.774,0.356,1.259,0.816,0.887,0.478,1.34,0.907,219.0,526.0
2015-06-19,Sanaa,Yemen,44.191,15.3694,[43.691 14.8694 44.691 15.8694],0.714,0.282,1.17,0.722,0.854,0.454,1.304,0.868,193.0,492.0
2015-06-20,Sanaa,Yemen,44.191,15.3694,[43.691 14.8694 44.691 15.8694],0.673,0.197,1.088,0.664,0.834,0.426,1.286,0.844,186.0,474.0
2015-06-21,Sanaa,Yemen,44.191,15.3694,[43.691 14.8694 44.691 15.8694],0.68,0.238,1.171,0.682,0.805,0.414,1.269,0.83,178.0,500.0
2015-06-22,Sanaa,Yemen,44.191,15.3694,[43.691 14.8694 44.691 15.8694],0.673,0.282,1.14,0.674,0.791,0.407,1.246,0.821,178.0,486.0
2015-06-23,Sanaa,Yemen,44.191,15.3694,[43.691 14.8694 44.691 15.8694],0.653,0.246,1.093,0.656,0.786,0.408,1.235,0.823,181.0,493.0
2015-06-24,Sanaa,Yemen,44.191,15.3694,[43.691 14.8694 44.691 15.8694],0.619,0.161,0.969,0.588,0.752,0.37,1.178,0.789,177.0,494.0
2015-06-25,Sanaa,Yemen,44.191,15.3694,[43.691 14.8694 44.691 15.8694],0.547,0.137,0.873,0.55,0.76,0.408,1.172,0.791,193.0,476.0
2015-06-26,Sanaa,Yemen,44.191,15.3694,[43.691 14.8694 44.691 15.8694],0.524,0.117,0.849,0.525,0.765,0.398,1.17,0.79,185.0,500.0
2015-06-27,Sanaa,Yemen,44.191,15.3694,[43.691 14.8694 44.691 15.8694],0.526,0.125,0.849,0.534,0.756,0.415,1.157,0.785,204.0,469.0
2015-06-28,Sanaa,Yemen,44.191,15.3694,[43.691 14.8694 44.691 15.8694],0.526,0.117,0.849,0.534,0.758,0.398,1.123,0.762,193.0,495.0
2015-06-29,Sanaa,Yemen,44.191,15.3694,[43.691 14.8694 44.691 15.8694],0.524,0.125,0.849,0.533,0.739,0.378,1.119,0.74,199.0,478.0
2015-06-30,Sanaa,Yemen,44.191,15.3694,[43.691 14.8694 44.691 15.8694],0.514,0.114,0.849,0.517,0.718,0.357,1.092,0.707,232.0,492.0
2015-07-01,Sanaa,Yemen,44.191,15.3694,[43.691 14.8694 44.691 15.8694],0.504,0.114,0.844,0.493,0.716,0.337,1.075,0.689,221.0,491.0